Regional Weather Roundup
Issued by NWS

Home | Current Version | Previous Version | Graphics & Text | Print | Product List | Glossary On
Versions: 1 2 3 4 5 6 7 8 9 10 11 12 13 14 15 16 17 18 19 20 21 22 23 24 25 26 27 28 29 30 31 32 33 34 35 36 37 38 39 40 41 42 43 44 45 46 47 48 49 50
000
ASUS45 KBOU 261313
RWRCO

WEATHER ROUNDUP FOR COLORADO
NATIONAL WEATHER SERVICE PUEBLO CO
700 AM MDT TUE AUG 26 2014

NOTE: "FAIR" INDICATES FEW OR NO CLOUDS BELOW 12000 FEET WITH NO
SIGNIFICANT WEATHER AND/OR OBSTRUCTIONS TO VISIBILITY.

COZ001>005-013-030-031-261400-
...NORTHWEST COLORADO...

CITY           SKY/WX    TMP DP  RH WIND       PRES   REMARKS
CRAIG          MOCLDY    54  47  77 E6        30.25R
HAYDEN         NOT AVBL
MEEKER         CLOUDY    52  47  83 NE3       30.25R
MOUNT WERNER   NOT AVBL
STEAMBOAT SPGS FAIR      47  45  91 CALM      30.29R
WALDEN         FAIR      37  36  93 SE7       30.37R
$$

COZ006>008-011-261400-
...WEST CENTRAL VALLEYS...

CITY           SKY/WX    TMP DP  RH WIND       PRES   REMARKS
GRAND JUNCTION MOCLDY    61  50  67 S6        30.14R
MONTROSE       MOCLDY    61  46  57 SE8       30.23R
EAGLE          PTCLDY    46  45  93 CALM      30.33R
RIFLE          MOCLDY    55  49  80 N3        30.22R
DELTA          NOT AVBL
NUCLA          FAIR      61  43  51 SE3       30.25R
$$

COZ017>023-064>068-261400-
...SOUTHWEST COLORADO...

CITY           SKY/WX    TMP DP  RH WIND       PRES   REMARKS
DURANGO        CLOUDY    54  43  66 CALM      30.31R
CORTEZ         MOCLDY    54  48  80 SE5       30.25R
PAGOSA SPRINGS MOCLDY    52  41  67 CALM      30.37R
TELLURIDE      MOCLDY    52  39  62 CALM      30.43R
WOLF CREEK PAS NOT AVBL
$$

COZ009-010-012-014-032>034-037-058>063-261400-
...CENTRAL COLORADO...

CITY           SKY/WX    TMP DP  RH WIND       PRES   REMARKS
ASPEN          PTCLDY    48  42  80 CALM      30.34R
BUENA VISTA    MOCLDY    46  40  81 NW3       30.40R
COPPER MTN     CLOUDY    48  32  53 S17       30.62R
BERTHOUD PASS  MOCLDY    41  39  93 SW9       30.66R
COTTONWOOD PAS MOCLDY    50  41  71 CALM      30.49R
GUNNISON       MOCLDY    45  39  81 CALM      30.39S
KREMMLING      PTCLDY    41  37  87 CALM      30.37R
LEADVILLE      CLOUDY    37  35  92 NE3       30.49R
MONARCH PASS   PTCLDY    43  34  70 SW8       30.71R
SALIDA         NOT AVBL
NIWOT RIDGE    NOT AVBL
SUNLIGHT       MOCLDY    45  37  76 CALM      30.52R
WILKERSON PASS NOT AVBL
$$

COZ069>075-261400-
...SAN LUIS VALLEY/SANGRE DE CRISTO MOUNTAINS...

CITY           SKY/WX    TMP DP  RH WIND       PRES   REMARKS
ALAMOSA        MOCLDY    55  47  74 CALM      30.34R
LA VETA PASS   NOT AVBL
SAGUACHE       MOCLDY    48  41  76 NW7       30.37R
$$

COZ035-036-038>040-261400-
...NORTHERN COLORADO FRONT RANGE...

CITY           SKY/WX    TMP DP  RH WIND       PRES   REMARKS
DENVER INTL AP MOCLDY    59  54  83 SE13      30.24R
DMNS CITY PARK NOT AVBL
AURORA         MOCLDY    58  56  93 SE17      30.25R
FRONT RANGE AP FAIR      61  55  82 SE14G20   30.25S
ERIE MUNI ARPT CLOUDY    62  57  85 SE6       30.24S
BOULDER MUN AP CLOUDY    59  54  82 N3        30.25R
CENTENNIAL     MOCLDY    59  53  80 SE12      30.26R
BROOMFIELD     CLOUDY    59  57  94 VRB3      30.26R
LOVELAND       MOCLDY    59  54  82 CALM      30.25S
LONGMONT       CLOUDY    62  58  85 CALM      30.26R
$$

COZ041-046-047-076>085-087-088-261400-
...PIKES PEAK/PALMER DIVIDE AND SOUTHERN FOOTHILLS...

CITY           SKY/WX    TMP DP  RH WIND       PRES   REMARKS
COLO. SPRINGS  DRIZZLE   58  54  86 SE8       30.32R
A. F. ACADEMY  DRIZZLE   55  55 100 SE9       30.33R FOG
ELLICOTT       CLOUDY    57  54  88 E6        30.30S
FALCON         CLOUDY    55  54  97 E9        30.36R FOG
FORT CARSON    CLOUDY    59  55  84 E6        30.30R
LIMON          CLOUDY    57  55  93 CALM      30.28S
MONUMENT HILL  CLOUDY    54  52  94 SE10      30.33F
TRINIDAD       NOT AVBL
$$

COZ042>045-048>051-090-091-261400-
...NORTHEAST COLORADO...

CITY           SKY/WX    TMP DP  RH WIND       PRES   REMARKS
GREELEY ARPT   CLOUDY    57  48  72 CALM      30.24R
AKRON          LGT RAIN  62  53  72 E13       30.22S
BURLINGTON     CLOUDY    60  58  92 NW3       30.23R
WRAY           LGT RAIN N/A N/A N/A N5        30.24R
STERLING       FAIR      63  61  94 CALM      30.17F
HOLYOKE        NOT AVBL
FORT MORGAN    FAIR      58  55  89 W6        30.23R
$$

COZ086-089-092>099-261400-
...SOUTHEAST COLORADO...

CITY           SKY/WX    TMP DP  RH WIND       PRES   REMARKS
PUEBLO         CLOUDY    64  56  75 NE7       30.24R
LA JUNTA       CLOUDY    63  59  87 NE6       30.19R
LAMAR          PTCLDY    61  57  87 NE7       30.14R
SPRINGFIELD      N/A     61  59  93 S12       30.18R
$$




USA.gov is the U.S. government's official web portal to all federal, state and local government web resources and services.